Zurück zum Katalog

TYCHE

AktivWissenschaftSSO
NORAD 60496·PAYLOAD·🇬🇧 United Kingdom

Gestartet Aug 16, 2024 von Vandenberg Space Force Base

Loading…

Nächste Überflüge (nächste 24 Stunden)

TLE

AktuellSource: Space-Track

Epoche: Sep 14, 2026, 12:29 UTC

1 60496U 24149AE  26257.52043114  .00003380  00000-0  13469-3 0  9997
2 60496  97.3688 334.0963 0002132  40.1409 319.9987 15.25901457115521

Verfolge TYCHE in Echtzeit mit AllMySat

Download on the App Store